Regional Weather Roundup
Issued by NWS

Home | Current Version | Previous Version | Graphics & Text | Print | Product List | Glossary On
Versions: 1 2 3 4 5 6 7 8 9 10 11 12 13 14 15 16 17 18 19 20 21 22 23 24 25 26 27 28 29 30 31 32 33 34 35 36 37 38 39 40 41 42 43 44 45 46 47 48 49 50
752
ASUS45 KTFX 272310
RWRMT
MONTANA REGIONAL WEATHER ROUNDUP
NATIONAL WEATHER SERVICE GREAT FALLS MT
500 PM MDT THU APR 27 2017

NOTE: "FAIR" INDICATES FEW OR NO CLOUDS BELOW 12000 FEET WITH NO
SIGNIFICANT WEATHER AND/OR OBSTRUCTIONS TO VISIBILITY.

MTZ001>007-043-280000-
WEST OF THE DIVIDE

CITY           SKY/WX    TMP DP  RH WIND       PRES   REMARKS
KALISPELL      LGT RAIN  42  39  89 S8        29.81S
MISSOULA       PTSUNNY   49  29  46 N17G29    29.84R
BUTTE          CLOUDY    41  27  57 N17G23    29.74S
MULLAN PASS    PTSUNNY   29  27  92 VRB7      29.82S WCI  22
ANACONDA         N/A     45  21  39 S8        29.76R
DEER LODGE       N/A     43  25  49 W17G25    29.78S
EUREKA           N/A     48  36  61 SE13      29.77S
HAMILTON         N/A     45  21  39 NW6       29.83R
LIBBY            N/A     50  28  43 CALM      29.81S
$$

MTZ008-052>055-280000-
SOUTHWEST MONTANA

CITY           SKY/WX    TMP DP  RH WIND       PRES   REMARKS
BOZEMAN        CLOUDY    43  34  70 S10       29.72S
DILLON         CLOUDY    45  22  40 VRB3      29.72R
W YELLOWSTONE  CLOUDY    36  27  69 SE5       29.69S
THREE FORKS      N/A     43  21  41 S8        29.75R
TWIN BRIDGES     N/A     40  28  62 NE2       29.76S
$$

MTZ009-010-012-014-046-048-049-054-280000-
EAST SLOPES AND CENTRAL MONTANA

CITY           SKY/WX    TMP DP  RH WIND       PRES   REMARKS
CUT BANK       CLOUDY    42  34  73 VRB3      29.76R
GREAT FALLS    CLOUDY    42  37  82 N14       29.75R
MALMSTROM AFB  LGT RAIN  42  38  87 N16       29.75R
HELENA         PTSUNNY   49  23  36 W16G23    29.72R
AUGUSTA        PTSUNNY   39  37  90 N9        29.76R
BOWMANS CRNR   CLOUDY    40  32  71 NW16      29.74R
CHOTEAU          N/A     37  37 100 N7        29.79R FOG
FAIRFIELD      PTSUNNY   42  35  76 NW12      29.76R
POWER          PTSUNNY   40  35  82 N14       29.75R
RAYNESFORD     LGT RAIN  39  35  87 W15       29.73R WCI  31
ULM            SHOWER    39  36  90 W17       29.76R WCI  30
$$

MTZ011-013-016-021-045-047-050-051-280000-
NORTH CENTRAL MONTANA

CITY           SKY/WX    TMP DP  RH WIND       PRES   REMARKS
HAVRE          CLOUDY    47  38  71 NE12      29.73R
LEWISTOWN      PTSUNNY   41  38  89 NW10G17   29.69R
N BAR RANCH    PTSUNNY   41  36  81 NW15      29.70R
CHINOOK          N/A     45  37  76 NW9       29.73R
DENTON         LGT RAIN  41  38  89 MISG      29.67R
FORT BENTON      N/A     43  39  87 MISG      29.74R
GEYSER         PTSUNNY   41  35  80 W22G29    29.70R
GRASS RANGE    LGT RAIN  44  37  77 W13       29.65R
JUDITH GAP     PTSUNNY   42  32  69 N23       29.68R
STANFORD         N/A     41  35  77 NW23G31   29.69R
WINIFRED         N/A     45  37  74 NW15      29.68R
$$

MTZ017>020-022>027-061-062-280000-
NORTHEAST MONTANA

CITY           SKY/WX    TMP DP  RH WIND       PRES   REMARKS
GLASGOW        CLOUDY    53  23  31 E10       29.69R
JORDAN           N/A     54  28  36 VRB3      29.66R
SIDNEY         SUNNY     54  17  23 E9        29.72R
WOLF POINT     MOSUNNY   57  22  25 E16       29.71R
PLENTYWOOD       N/A     52  10  19 NE10      29.74S
POPLAR           N/A     54  16  22 SE13      29.72R
SCOBEY           N/A     54  17  23 E8        29.73
$$

MTZ028>42-056>058-280000-
SOUTHCENTRAL AND SOUTHEAST MONTANA

CITY           SKY/WX    TMP DP  RH WIND       PRES   REMARKS
BAKER          SUNNY     50  24  36 E10       29.67S
BILLINGS       LGT RAIN  41  38  89 N12       29.67R
LIVINGSTON     CLOUDY    44  33  65 SW17      29.68S
MILES CITY     CLOUDY    54  30  40 NE10      29.65R
BIG TIMBER     PTSUNNY   45  30  57 N10G20    29.70R
EKALAKA          N/A     48  25  41 E8        29.67
LAUREL           N/A     43  32  65 NW17      29.69R
ROUNDUP          N/A     42  36  79 NW15      29.63R
$$

REGIONAL REPORTS...DAKOTAS

CITY           SKY/WX    TMP DP  RH WIND       PRES   REMARKS
WILLISTON      SUNNY     54  17  23 SE9       29.74R
MINOT          SUNNY     52  19  27 NE13      29.74R
DICKINSON      SUNNY     49  21  33 VRB6      29.68R
BEACH            N/A     52  18  25 E12G17    29.72S
TIOGA            N/A     48   7  18 E12       29.76R
WATFORD CITY     N/A     50  14  23 E12       29.73R
BISMARCK       SUNNY     53  26  35 N5        29.71S
GRAND FORKS    CLOUDY    46  33  60 N15       29.66R
FARGO          CLOUDY    40  30  67 N6        29.68R
BUFFALO SD       N/A     49  26  41 E13G18    29.60R
RAPID CITY     CLOUDY    47  33  58 E10       29.64R
$$

REGIONAL REPORTS...WYOMING/IDAHO/WASHINGTON

CITY           SKY/WX    TMP DP  RH WIND       PRES   REMARKS
GILLETTE       LGT RAIN  39  38  96 N8        29.59R
SHERIDAN       LGT SNOW  33  32  96 NW7       29.66R FOG     WCI  27
BUFFALO WY     LGT SNOW  35  31  85 N18G25    29.62R FOG     WCI  24
CODY           CLOUDY    44  35  70 N14       29.64R
YELLOWSTONE LA   N/A     29  23  78 VRB6      29.69R WCI  23
IDAHO FALLS    LGT RAIN  40  35  83 S15       29.77R
SALMON         CLOUDY    45  21  39 N18G29    29.77S
BOISE          MOSUNNY   50  25  37 NW18G28   29.92F
SPOKANE        PTSUNNY   48  33  56 SW18      29.87F
$$

REGIONAL REPORTS...ALBERTA

CITY           SKY/WX    TMP DP  RH WIND       PRES   REMARKS
EDMONTON       MOSUNNY   41  30  65 E6        29.83R
CALGARY        PTSUNNY   45  25  45 N12       29.74R
LETHBRIDGE     CLOUDY    46  34  61 VRB2      29.75R
MEDICINE HAT   PTSUNNY   48  27  43 NW13G18   29.75R
WATERTON GATE    N/A     37  34  87 E6          N/A
CARDSTON         N/A     45  34  65 SE6         N/A
MILK RIVER       N/A     45  32  61 N5          N/A
$$

REGIONAL REPORTS...SASKATCHEWAN

CITY           SKY/WX    TMP DP  RH WIND       PRES   REMARKS
SWIFT CURRENT  CLOUDY    45  34  65 S14       29.73R
REGINA         PTSUNNY   52  12  20 NE12      29.79R
SASKATOON      CLOUDY    48  18  29 SE13      29.84R
VAL MARIE        N/A     46  32  57 E8          N/A
ASSINIBOIA       N/A     41  32  70 E12         N/A
$$




USA.gov is the U.S. government's official web portal to all federal, state and local government web resources and services.